Regional Weather Roundup
Issued by NWS Upton, NY

Current Version | Previous Version | Graphics & Text | Print | Product List | Glossary Off
Versions: 1 2 3 4 5 6 7 8 9 10 11 12 13 14 15 16 17 18 19 20 21 22 23 24 25 26 27 28 29 30 31 32 33 34 35 36 37 38 39 40 41 42 43 44 45 46 47 48 49 50

000
ASUS41 KOKX 041408
RWROKX

REGIONAL WEATHER ROUNDUP
NATIONAL WEATHER SERVICE NEW YORK NY
1000 AM EDT MON MAY 04 2015

NOTE: "FAIR" INDICATES FEW OR NO CLOUDS BELOW 12,000 FEET WITH NO
SIGNIFICANT WEATHER AND/OR OBSTRUCTIONS TO VISIBILITY.

NYZ071-072-176-178-NJZ106-104-041500-
NEW YORK CITY METRO AREA


CITY           SKY/WX    TMP DP  RH WIND       PRES   REMARKS
CENTRAL PARK   SUNNY     72  49  44 CALM      30.24S
LAGUARDIA APRT SUNNY     65  50  58 NE6       30.21S
KENNEDY INTL   MOSUNNY   65  49  56 S5        30.23S
NEWARK/LIBERTY MOSUNNY   73  46  38 SW5       30.21S
BRNX BOT. GARD   N/A     68  48  49 S5        30.24S
TETERBORO      SUNNY     70  45  40 VRB3      30.20S
$$

NYZ177-179-078>081-041500-
LONG ISLAND NEW YORK

CITY           SKY/WX    TMP DP  RH WIND       PRES   REMARKS
FARMINGDALE    SUNNY     66  52  60 SE5       30.22S
ISLIP          MOSUNNY   67  49  52 VRB5      30.21S
SHIRLEY        SUNNY     66  52  60 S6        30.23S
WESTHAMPTON    SUNNY     63  50  62 S6        30.24S
MONTAUK POINT    N/A     61  51  70 S7        30.24S
$$

NYZ052-065-067-041500-
HUDSON VALLEY

CITY           SKY/WX    TMP DP  RH WIND       PRES   REMARKS
WHITE PLAINS   SUNNY     68  49  50 S3        30.21S
NEWBURGH       NOT AVBL
MONTGOMERY     MOSUNNY   72  47  40 VRB5      30.19S
POUGHKEEPSIE   PTSUNNY   71  46  40 W3        30.18F
ALBANY         MOSUNNY   68  42  38 S8        30.17F
$$

NJZ001-105-106-008-010-013-015-019>022-104-041500-
NEW JERSEY

CITY           SKY/WX    TMP DP  RH WIND       PRES   REMARKS
NEWARK/LIBERTY MOSUNNY   73  46  38 SW5       30.21S
TETERBORO      SUNNY     70  45  40 VRB3      30.20S
CALDWELL       SUNNY     70  46  42 CALM      30.21S
MORRISTOWN     SUNNY     72  48  43 CALM      30.21F
SOMERVILLE     SUNNY     69  48  47 CALM      30.19F
SUSSEX         SUNNY     71  46  40 SW6       30.20F
ANDOVER          N/A     71  45  39 VRB5      30.21S
TRENTON        MOSUNNY   71  49  45 SW3       30.22R
MILLVILLE      SUNNY     74  47  38 W8        30.24S
ATLANTIC CITY  SUNNY     77  45  32 W9        30.24R
WRIGHTSTOWN    SUNNY     74  48  39 SW6       30.20S
TOMS RIVER     SUNNY     79  45  29 CALM      30.21S
BELMAR         SUNNY     75  48  38 W6        30.22S
$$

PAZ047>061-062-071-041500-
EASTERN PENNSYLVANIA

CITY           SKY/WX    TMP DP  RH WIND       PRES   REMARKS
PHILADELPHIA   MOSUNNY   71  50  47 SW7       30.23S
ALLENTOWN      SUNNY     70  47  43 CALM      30.21F
SCRANTON       MOSUNNY   73  42  32 W3        30.20F
$$

CTZ002-004>006-009-010-012-RIZ004-006-007-MAZ004-011-015-041500-
SOUTHERN NEW ENGLAND
 IN CT

CITY           SKY/WX    TMP DP  RH WIND       PRES   REMARKS
BRADLEY INTL   MOSUNNY   67  46  47 VRB3      30.19F
HARTFORD       SUNNY     66  32  28 S3        30.20S
DANBURY        SUNNY     70  45  40 CALM      30.22S
WTRBRY/OXFORD  SUNNY     68  46  45 SW5       30.22S
BRIDGEPORT     SUNNY     60  51  72 SW6       30.23R
MERIDEN        SUNNY     67  48  50 SE6       30.21S
NEW HAVEN      MOSUNNY   60  49  66 S6        30.22S
CHESTER        FAIR      64  46  52 W6        30.22S
GROTON         SUNNY     54  49  83 S6        30.23S
WILLIMANTIC    SUNNY     63  47  55 S3        30.22S

 IN RI

CITY           SKY/WX    TMP DP  RH WIND       PRES   REMARKS
PROVIDENCE     MOSUNNY   57  49  74 S9        30.22S
BLOCK ISLAND   SUNNY     57  48  72 SW14      30.24S
WESTERLY       SUNNY     60  48  64 SW7       30.23S

 IN MA

CITY           SKY/WX    TMP DP  RH WIND       PRES   REMARKS
BOSTON         MOSUNNY   69  46  43 SW8       30.19S
WORCESTER      SUNNY     72  40  31 SW10      30.21S
WESTFIELD      SUNNY     66  44  45 S5        30.20S
PROVINCETOWN   SUNNY     61  52  72 SW15      30.22S
NANTUCKET      SUNNY     57  48  72 S16G23    30.26R
$$

ANZ330-335-338-340-345-350-353-355-041500-
COASTAL MARINE OBSERVATIONS


STATION/POSITION TIME  SKY/WX   TEMP    WIND        PRES    VSBY  WAVE
                                AIR SEA DIR/SP/G                  HT/PER
                 (UTC)          (F)     (DEG/KT/KT) (MB)    (MI)  (FT/S)
NY HARB ENTRANCE 1350            53 52  190/  6/  8 1023.1          3/ 9
4S FIRE IS       1303               49                N/A           4/ 8
20S FIRE ISLAND  1350            51 48  190/  8/  8 1023.7          3/ 8
GREAT SOUTH BAY  1300            55 57  240/  6/  8   N/A
23SW MTP         1350            49 46  210/  8/  8 1023.5          3/ 8
HUDSON CANYON    NOT AVBL
EXECUTION ROCKS  NOT AVBL
WESTERN LI SOUND NOT AVBL
CENTRAL LI SOUND NOT AVBL
EASTERN LI SOUND NOT AVBL
ROBBINS REEF     1300            58     160/  2/  3 1021.9
$$


>>>>>>>>>>>>>>>>>>>>>>>>>>>> KEY <<<<<<<<<<<<<<<<<<<<<<<<<<<
>                                                          <
>     SKY/WX - SKY CONDITION/PRESENT WEATHER               <
>     TMP    - TEMPERATURE IN FAHRENHEIT                   <
>     DP     - DEWPOINT IN FAHRENHEIT                      <
>     RH     - RELATIVE HUMIDITY IN PERCENT                <
>     WIND   - DIRECTION AND SPEED IN MPH                  <
>     PRES   - MEAN SEA LEVEL PRESSURE IN INCHES OF HG     <
>     WCI    - WIND CHILL INDEX                            <
>     VSB    - VISIBILITY IN MILES                         <
>     HX     - HEAT INDEX                                  <
>     TC     - TEMPERATURE IN CELSIUS                      <
>     VRB    - VARIABLE WIND DIRECTION                     <
>                                                          <
>>>>>>>>>>>>>>>>>>>>>>>>>>>> KEY <<<<<<<<<<<<<<<<<<<<<<<<<<<





USA.gov is the U.S. government's official web portal to all federal, state and local government web resources and services.